Location: Aufkirchen
(47.9603°N, 11.3653°E)
Time: 15:05:04
(UTC+01:00)

Transit 2A Rocket - Pass Details

Date: 11 December 2020
Orbit: 592 x 910 km, 66.7° (Epoch: 21 January)

Event Time Altitude Azimuth Distance (km) Brightness Sun altitude
Rises 22:39:11 0° 195° (SSW) 3,489 - -59.5°
Reaches altitude 10° 22:41:48 10° 191° (S) 2,526 - -59.8°
Maximum altitude 22:47:26 50° 118° (ESE) 1,059 - -60.4°
Drops below altitude 10° 22:52:42 10° 44° (NE) 2,364 - -60.9°
Sets 22:55:05 0° 39° (NE) 3,246 - -61.2°
